Hourly Data Report for July 02, 2016

OTTAWA INTL A
ONTARIO

45°19'00.000" N
75°40'00.000" W
114.90 m
6106001
71628
YOW

Download Data

Hourly Data (July 2016)
Hourly Data Report for July 2, 2016
TIME
LST
Temp Definition
°C
Dew Point Definition
°C
Rel Hum Definition
%
Precip. Amount Definition
mm

Wind Dir Definition
10's deg

Wind Spd Definition
km/h
Visibility Definition
km
Stn Press Definition
kPa
Hmdx Definition


Wind Chill Definition


Weather Definition


00:00 15.1 14.3 95   25 22 24.1 99.40     Rain
01:00 14.7 13.8 94   27 26 16.1 99.45     Rain
02:00 14.1 12.7 91   27 28 24.1 99.49     LegendNANA
03:00 13.4 11.5 88   27 26 24.1 99.55     LegendNANA
04:00 13.4 11.0 85   28 31 24.1 99.62     Mostly Cloudy
05:00 12.8 10.9 88   27 14 24.1 99.72     LegendNANA
06:00 13.2 10.8 85   26 24 24.1 99.78     LegendNANA
07:00 14.1 10.4 78   28 25 24.1 99.86     Mostly Cloudy
08:00 14.7 10.2 74   29 26 24.1 99.93     LegendNANA
09:00 15.9 9.9 67   29 28 24.1 99.98     LegendNANA
10:00 15.9 7.7 58   28 31 24.1 100.01     Mostly Cloudy
11:00 16.6 8.9 60   30 27 24.1 100.06     LegendNANA
12:00 18.7 8.8 52   30 30 24.1 100.06     LegendNANA
13:00 19.4 8.8 50   30 34 24.1 100.07     Mostly Cloudy
14:00 20.7 7.8 43   29 28 24.1 100.04     LegendNANA
15:00 21.9 7.5 39   30 29 24.1 100.02     LegendNANA
16:00 22.4 6.4 35   28 27 24.1 100.00     Mainly Clear
17:00 22.0 5.6 34   28 29 24.1 100.03     LegendNANA
18:00 21.7 6.2 36   29 22 24.1 100.03     LegendNANA
19:00 20.1 7.6 44   27 16 24.1 100.07     Mainly Clear
20:00 18.9 7.8 48   28 15 24.1 100.10     LegendNANA
21:00 17.0 8.5 57   25 10 24.1 100.16     LegendNANA
22:00 15.9 8.9 63   25 14 24.1 100.15     Mainly Clear
23:00 13.3 8.2 71   25 10 24.1 100.16     LegendNANA

Notes on Data Quality.

Legend

  • E = Estimated
  • M = Missing
  • NA = Not Available*
  • [empty] = Indicates an unobserved value
Date modified: